This is the latest recevied weather packets stored in our database for station/object KA1AL. If no packets are shown the sender has not sent any weather packets the latest 10 day(s).
| Time | Temp. | Humidity | Pressure | Rain* | Wind** | Luminosity | Snow |
|---|---|---|---|---|---|---|---|
| 1778154414 | 6.11° C | 93% | 1004.7 hPa | 0 mm | - | 125 W/m² | - |
| 1778154111 | 6.11° C | 94% | 1004.7 hPa | 0 mm | - | 105 W/m² | - |
| 1778153808 | 6.11° C | 94% | 1004.6 hPa | 0 mm | - | 119 W/m² | - |
| 1778153505 | 6.11° C | 94% | 1004.6 hPa | 0 mm | - | 119 W/m² | - |
| 1778153203 | 6.11° C | 95% | 1004.6 hPa | 0 mm | - | 103 W/m² | - |
| 1778152899 | 6.11° C | 96% | 1004.8 hPa | 0 mm | - | 95 W/m² | - |
| 1778152597 | 6.11° C | 95% | 1004.6 hPa | 0 mm | - | 104 W/m² | - |
| 1778152293 | 5.56° C | 96% | 1004.9 hPa | 0 mm | - | 114 W/m² | - |
| 1778151990 | 5.56° C | 96% | 1004.7 hPa | 0 mm | - | 93 W/m² | - |
| 1778151686 | 5.56° C | 97% | 1004.9 hPa | 0 mm | - | 75 W/m² | - |
| 1778151383 | 5.56° C | 97% | 1005.1 hPa | 0 mm | - | 66 W/m² | - |
| 1778151079 | 5.56° C | 97% | 1005.2 hPa | 0 mm | - | 58 W/m² | - |
| 1778150777 | 5.56° C | 98% | 1004.8 hPa | 0 mm | - | 62 W/m² | - |
| 1778150473 | 5.56° C | 98% | 1004.8 hPa | 0 mm | - | 65 W/m² | - |
| 1778150169 | 5.56° C | 98% | 1004.6 hPa | 0 mm | - | 70 W/m² | - |
| 1778149866 | 5.56° C | 99% | 1005 hPa | 0 mm | - | 56 W/m² | - |
| 1778149562 | 5° C | 99% | 1004.6 hPa | 0 mm | - | 52 W/m² | - |
| 1778149259 | 5° C | 99% | 1004.5 hPa | 0 mm | - | 42 W/m² | - |
| 1778148955 | 5° C | 99% | 1004.4 hPa | 0 mm | - | 35 W/m² | - |
| 1778148651 | 5° C | 99% | 1004.7 hPa | 0 mm | - | 28 W/m² | - |
| 1778148348 | 5° C | 99% | 1004.5 hPa | 0 mm | - | 21 W/m² | - |
| 1778148046 | 5° C | 99% | 1004.4 hPa | 0 mm | - | 19 W/m² | - |
| 1778147744 | 5° C | 99% | 1004.5 hPa | 0 mm | - | 12 W/m² | - |
| 1778147440 | 5° C | 99% | 1004.6 hPa | 0 mm | - | 8 W/m² | - |
| 1778147136 | 5° C | 99% | 1004.2 hPa | 0 mm | - | 4 W/m² | - |
* Rain latest hour (hover to see other rain measurements)
** Current wind speed in m/s (hover to see current wind gust speed)